Home   Weather   Kuujjuaq   Past weeks
Flag for Canada

Past Weather in Kuujjuaq, Quebec, Canada — Yesterday and Last 2 Weeks

Now
21 °F

Light snow. Overcast.


Feels Like: 10 °F
Forecast: 17 / 10 °F
Wind: 10 mph from Northeast

Location: Kuujjuaq

Current Time: Apr 3, 2020 at 1:27:12 am

Latest Report: Apr 3, 2020 at 12:00 am


Visibility: 15 mi

Pressure: 30.78 "Hg

Humidity: 80%

Dew Point: 16 °F

Location of KuujjuaqLocation

Past Weather in Kuujjuaq — Graph

°F

Kuujjuaq Temperature Yesterday

Maximum temperature yesterday: 25 °F (at 12:00 pm)
Minimum temperature yesterday: 18 °F (at 12:00 am)
Average temperature yesterday: 22 °F

High & Low Weather Summary for the Past Weeks

 TemperatureHumidityPressure
High34 °F (Mar 26, 9:00 am)93% (Mar 24, 12:00 am)30.85 "Hg (Mar 24, 12:00 am)
Low-18 °F (Mar 20, 7:00 am)31% (Mar 29, 3:00 pm)29.43 "Hg (Mar 26, 9:00 am)
Average8 °F69%30.23 "Hg
* Reported Mar 19 12:00 am — Apr 3 12:00 am, Kuujjuaq. Weather by CustomWeather, © 2020

Note: Actual official high and low records may vary slightly from our data, if they occured in-between our weather recording intervals... More about our weather records

Kuujjuaq Weather History for the Previous 24 Hours

Scroll right to see more
 ConditionsComfort  
Time TempWeatherWind HumidityBarometerVisibility
12:00 am
Fri, Apr 3
21 °FLight snow. Overcast.10 mph80%30.78 "Hg15 mi
11:43 pm
Thu, Apr 2
21 °FLight snow. Overcast.10 mph80%30.78 "Hg15 mi
11:00 pm21 °FOvercast.13 mph80%30.78 "Hg15 mi
10:00 pm21 °FOvercast.13 mph86%30.79 "Hg15 mi
9:00 pm23 °FOvercast.15 mph80%30.80 "Hg15 mi
7:00 pm23 °FMostly cloudy.15 mph80%30.80 "Hg15 mi
6:00 pm25 °FMore clouds than sun.16 mph74%30.80 "Hg15 mi
5:00 pm25 °FCloudy.17 mph74%30.80 "Hg15 mi
4:00 pm25 °FOvercast.18 mph74%30.81 "Hg15 mi
3:00 pm25 °FOvercast.20 mph69%30.80 "Hg15 mi
2:00 pm25 °FOvercast.15 mph74%30.81 "Hg15 mi
1:00 pm25 °FOvercast.18 mph69%30.82 "Hg15 mi
12:00 pm25 °FOvercast.13 mph69%30.82 "Hg15 mi
11:00 am23 °FOvercast.15 mph68%30.83 "Hg15 mi
10:00 am23 °FOvercast.16 mph68%30.83 "Hg15 mi
9:00 am23 °FOvercast.16 mph63%30.82 "Hg15 mi
8:00 am21 °FOvercast.16 mph68%30.82 "Hg15 mi
7:00 am19 °FOvercast.14 mph73%30.83 "Hg15 mi
6:00 am19 °FOvercast.12 mph68%30.82 "Hg15 mi
5:00 am19 °FPassing clouds.8 mph68%30.81 "Hg15 mi
4:00 am19 °FPassing clouds.9 mph68%30.81 "Hg15 mi
3:00 am18 °FPassing clouds.8 mph86%30.81 "Hg15 mi
2:00 am19 °FPassing clouds.8 mph79%30.81 "Hg15 mi
1:00 am18 °FPartly cloudy.10 mph86%30.81 "Hg15 mi
Weather by CustomWeather, © 2020

See weather overview

Advertising